Regional Weather Roundup
Issued by NWS

Home | Current Version | Previous Version | Text Only | Print | Product List | Glossary Off
Versions: 1 2 3 4 5 6 7 8 9 10 11 12 13 14 15 16 17 18 19 20 21 22 23 24 25 26 27 28 29 30 31 32 33 34 35 36 37 38 39 40 41 42 43 44 45 46 47 48 49 50

000
ASUS43 KDMX 200006
RWRIA

WEATHER ROUNDUP FOR IOWA
NATIONAL WEATHER SERVICE DES MOINES IA
700 PM CDT THU OCT 19 2017

NOTE: "FAIR" INDICATES FEW OR NO CLOUDS BELOW 12,000 FEET WITH NO
SIGNIFICANT WEATHER AND/OR OBSTRUCTIONS TO VISIBILITY.

* - THESE STATIONS ARE NOT NWS STATIONS...THUS NOT UNDER NWS
QUALITY CONTROL.  THEY ALSO DO NOT REPORT WEATHER SUCH
AS PRECIPITATION OR FOG.

IAZ001>003-012>014-020>022-031>034-043>046-200100-
   NORTHWEST IOWA

CITY           SKY/WX    TMP DP  RH WIND       PRES   REMARKS
CARROLL *      HAZE      79  73  83 SE6       29.99S VSB 1   HX  82
CHEROKEE *     CLEAR     64  51  61 S8        29.95S
DENISON *      CLEAR     70  52  52 SE7       29.99S
LE MARS *      CLEAR     66  50  55 SE8       29.93S
ORANGE CITY *  CLEAR     70  52  52 S8        29.94S
SHELDON *      CLEAR     64  48  55 S7        29.92S
SIOUX CITY     CLEAR     69  53  56 SE9       29.93F
6HR MIN TEMP:  69; 6HR MAX TEMP:  76;

SPENCER        CLEAR     63  48  58 SE9       29.96S
6HR MIN TEMP:  63; 6HR MAX TEMP:  75;

STORM LAKE *   CLEAR     66  52  59 S9        29.97S
$$

IAZ055>058-069>071-079>083-090>094-200100-
   SOUTHWEST IOWA

CITY           SKY/WX    TMP DP  RH WIND       PRES   REMARKS
ATLANTIC *     CLEAR     70  54  56 S6        30.00S
AUDUBON *      CLEAR     66  55  68 CALM      30.01S
CLARINDA *     CLEAR     70  52  52 S5        30.03S
COUNCIL BLFS * CLEAR     70  54  56 SE10      29.98S
CRESTON *      CLEAR     68  54  60 S8        30.04S
HARLAN  *      CLEAR     68  52  56 S5        30.02S
LAMONI         CLEAR     69  52  54 S7        30.05S
6HR MIN TEMP:  69; 6HR MAX TEMP:  76;

RED OAK *      CLEAR     70  52  52 S6        30.00S
SHENANDOAH *   CLEAR     70  52  52 S7        30.01R
$$

IAZ047>049-059>061-072>074-084-200100-
   CENTRAL IOWA

CITY           SKY/WX    TMP DP  RH WIND       PRES   REMARKS
AMES           CLEAR     63  54  72 SE6       30.02S
6HR MIN TEMP:  63; 6HR MAX TEMP:  75;

ANKENY *       CLEAR     66  55  68 SE5       30.04R
BOONE *        CLEAR     63  52  67 SE7       30.01S
CHARITON *     CLEAR     66  54  63 S8        30.05S
DES MOINES     PTCLDY    68  54  60 S7        30.03R
6HR MIN TEMP:  68; 6HR MAX TEMP:  76;

KNOXVILLE *    CLEAR     68  54  60 SE6       30.04R
MARSHALLTOWN   CLEAR     65  52  62 SE8       30.03S
6HR MIN TEMP:  65; 6HR MAX TEMP:  75;

NEWTON *       CLEAR     63  54  72 SE9       30.05R
PELLA *        CLEAR     67  54  62 SE6       30.06S
PERRY *          N/A     64  51  63 SE7       30.01S
$$

IAZ004>006-015-016-023>025-035-036-200100-
   NORTH CENTRAL IOWA

CITY           SKY/WX    TMP DP  RH WIND       PRES   REMARKS
ALGONA *       CLEAR     66  46  48 S10       29.99S
CLARION *      CLEAR     63  48  59 S9        30.01S
ESTHERVILLE    CLEAR     63  46  54 S10       29.96S
6HR MIN TEMP:  63; 6HR MAX TEMP:  72;

FORT DODGE *   CLEAR     67  50  54 SE7       30.00S
MASON CITY     CLEAR     59  40  49 SE8       30.02F
6HR MIN TEMP:  59; 6HR MAX TEMP:  72;

FOREST CITY *    N/A     57  43  58 SE8       30.00F
WEBSTER CITY * CLEAR     64  48  55 SE6       30.00R
IOWA FALLS *     N/A     63  49  60 SE8       30.04S
$$

IAZ007>011-017>019-026>030-037>042-050>054-066-200100-
   NORTHEAST IOWA

CITY           SKY/WX    TMP DP  RH WIND       PRES   REMARKS
CEDAR RAPIDS   CLEAR     60  50  69 SE6       30.07S
6HR MIN TEMP:  60; 6HR MAX TEMP:  72;

CHARLES CITY * CLEAR     61  37  41 SE8       30.04F
CLINTON *      CLOUDY    61  43  51 E9        30.11S
DECORAH *      CLEAR     61  36  39 S7        30.05F
DUBUQUE        PTCLDY    60  37  42 SE8       30.11S
6HR MIN TEMP:  59; 6HR MAX TEMP:  70;

MONTICELLO *   CLOUDY    61  41  48 SE7       30.09S
OELWEIN *      CLEAR     61  41  48 SE8       30.07S
WATERLOO       CLEAR     62  40  44 SE8       30.04F HAZE
6HR MIN TEMP:  61; 6HR MAX TEMP:  71;

$$

IAZ064-065-067-068-078-200100-
   EAST CENTRAL IOWA

CITY           SKY/WX    TMP DP  RH WIND       PRES   REMARKS
DAVENPORT      CLEAR     62  49  62 E7        30.12S
6HR MIN TEMP:  61; 6HR MAX TEMP:  74;

IOWA CITY      CLEAR     67  52  58 SE5       30.09R
6HR MIN TEMP:  67; 6HR MAX TEMP:  76;

MUSCATINE *    CLEAR     66  52  59 CALM      30.09R
$$

IAZ062-063-075>077-085>089-095>099-200100-
   SOUTHEAST IOWA

CITY           SKY/WX    TMP DP  RH WIND       PRES   REMARKS
BURLINGTON     CLEAR     65  54  67 S7        30.10R
6HR MIN TEMP:  65; 6HR MAX TEMP:  76;

FAIRFIELD *    CLEAR     64  52  63 SE6       30.08R
FORT MADISON * CLEAR     70  54  56 S3        30.11S
KEOKUK *       CLEAR     70  52  52 S6        30.10R
OSKALOOSA *      N/A     62  53  72 S9        30.07R
OTTUMWA        CLEAR     65  54  67 SE7       30.06R
6HR MIN TEMP:  64; 6HR MAX TEMP:  75;

WASHINGTON *   CLEAR     64  54  68 S9        30.09S
$$

ABBREVIATIONS USED IN REMARKS
   TC - TEMPERATURES IN CELSIUS
  WCI - WIND CHILL INDEX
   HX - HEAT INDEX
  VSB - VISIBILITY
$$





USA.gov is the U.S. government's official web portal to all federal, state and local government web resources and services.